Tracking 22881 objects as of 19-Apr-2021
HD Live streaming from Space Station
objects crossing your sky now

STARLINK-1351

Track STARLINK-1351 now!
10-day predictions
STARLINK-1351 is classified as:


NORAD ID: 45697
Int'l Code: 2020-035AS
Perigee: 553.9 km
Apogee: 554.8 km
Inclination: 53.1 °
Period: 95.6 minutes
Semi major axis: 6925 km
RCS: Unknown
Launch date: June 4, 2020
Source: United States (US)
Launch site: AIR FORCE EASTERN TEST RANGE (AFETR)
aabbcc
Your satellite tracking list
Your tracking list is empty




NASA's NSSDC Master Catalog

Two Line Element Set (TLE):
1 45697U 20035AS  21108.54577566  .00000556  00000-0  56179-4 0  9996
2 45697  53.0579 134.9245 0000603 112.0894 248.0159 15.06396924 49944
Source of the keplerian elements: AFSPC